[[{"header":{"parameterUnit":"m.s-1","parameterCategory":1,"la1":30.2991,"la2":30.254,"lo1":-89.0895,"lo2":-89.0444,"dy":0.0017,"dx":0.0017,"nx":28,"ny":28,"refTime":"2025-12-30T09:00:00:Z","depth":0,"parameterNumber":2,"parameterNumberName":"U-component_of_WINDS"},"data":[0,0,0,0,0,0,0,0,0,0,0,0,0,0,0,0,0,0,0,0,0,0,0,0,0,0,0,0,0,0,0,0,0,0,0,0,0,0,0,0,0,0,0,0,0,0,0,0,0,0,0,0,0,0,0,0,0,0,2.9503,2.9504,0,2.9523,2.9523,2.9523,2.9492,2.949,2.9489,2.9488,2.9508,2.9509,2.9511,0,0,0,0,0,0,0,0,0,0,0,0,0,2.944,2.9442,2.9503,2.9504,2.9504,2.9523,2.9523,2.9523,2.9492,2.949,2.9489,2.9488,2.9507,2.9509,2.9511,0,0,0,0,0,0,0,0,0,0,0,0,0,2.9465,2.9442,2.9503,2.9491,2.949,2.9523,2.9523,2.9523,2.9492,2.949,2.9489,2.9487,2.9507,2.9509,2.9511,2.9558,0,0,2.9518,2.9519,0,0,0,0,0,0,0,0,2.9463,2.9467,2.9492,2.9492,2.949,2.9503,2.9508,2.9535,2.9492,2.9491,2.9488,2.9487,2.9508,2.951,2.9517,2.9558,2.9559,2.9518,2.952,2.9521,2.9521,0,0,0,0,0,0,0,2.9462,2.9466,2.9511,2.9493,2.9492,2.9484,2.9486,2.9513,2.9508,2.9491,2.9489,2.9492,2.9507,2.9515,2.9517,2.956,2.9518,2.952,2.9522,2.9523,2.9642,2.9643,0,0,0,0,0,0,2.9461,2.9465,2.951,2.9512,2.9473,2.9487,2.9488,2.9501,2.9508,2.9507,2.9493,2.949,2.9512,2.9514,2.9518,2.9573,2.9521,2.9523,2.9524,2.964,2.9642,2.9644,0,0,0,0,0,0,2.946,2.9466,2.951,2.9488,2.9493,2.9489,2.9503,2.9502,2.951,2.9509,2.9508,2.9502,2.951,2.9514,2.9548,2.9573,2.9524,2.9526,2.9638,2.964,2.9643,2.9684,0,0,0,0,0,0,2.9459,2.9466,2.9483,2.9488,2.9494,2.954,2.9505,2.9503,2.9514,2.951,2.9517,2.9517,2.9509,2.9545,2.955,2.9576,2.9528,2.9635,2.9639,2.9642,2.9681,2.9688,2.9694,0,0,0,0,0,2.9456,2.9493,2.9484,2.949,2.9515,2.9541,2.9545,2.9535,2.9516,2.9534,2.9533,2.9517,2.957,2.9549,2.9555,2.9581,2.9634,2.9638,2.9642,2.9677,2.9686,2.9694,0,0,0,0,0,0,2.9491,2.9494,2.9483,2.9523,2.9532,2.9536,2.9558,2.9545,2.956,2.9556,2.9544,2.9546,2.9582,2.9585,2.9561,2.9627,2.9599,2.9604,2.9624,2.9632,2.9639,2.9638,2.953,0,0,0,0,0,2.9503,2.9524,2.9525,2.956,2.9566,2.9561,2.9572,2.9564,2.9573,2.9577,2.9579,2.9588,2.9607,2.962,2.9637,2.9681,2.9682,2.9702,2.9709,2.9714,2.9719,2.9744,2.9753,2.9657,2.9657,2.9657,0,0,2.9529,2.9533,2.9547,2.9567,2.9574,2.9596,2.9564,2.9589,2.9605,2.958,2.9613,2.9615,2.9624,2.9664,2.9681,2.9667,2.9746,2.9719,2.9724,2.9726,2.9749,2.9758,2.9766,2.966,2.9659,2.9659,0,0,2.9586,2.9591,2.9622,2.9629,2.9639,2.9636,2.9643,2.9649,2.9649,2.9682,2.9664,2.9683,2.9716,2.9724,2.9732,2.9794,2.978,2.98,2.9836,2.986,2.9868,2.9874,2.9897,2.9905,2.9805,2.9805,2.9805,0,2.9617,2.9649,2.9639,2.9665,2.9675,2.9654,2.9685,2.9692,2.9707,2.9715,2.9699,2.974,2.9745,2.9786,2.9802,2.9809,2.9817,2.9799,2.9867,2.9874,2.988,2.9902,2.991,2.9808,2.9807,2.9807,2.9807,0,2.9687,2.971,2.9733,2.9748,2.9761,2.9789,2.9784,2.9798,2.9789,2.9788,2.9822,2.9827,2.9846,2.9855,2.9846,2.9895,2.9886,2.9869,2.9841,2.9892,2.9912,2.992,2.9811,2.981,2.981,2.9809,0,0,2.9766,2.9777,2.9785,2.9793,2.9802,2.982,2.9848,2.9866,2.9879,2.989,2.9913,2.9942,2.9926,2.9936,2.9928,2.9949,2.9999,2.9929,2.9929,2.9943,3.0055,3.0068,3.0078,2.999,2.9991,2.9993,3.0054,0,2.9825,2.9872,2.9864,2.9911,2.9932,2.9913,2.9938,2.9947,2.9947,2.9965,2.9965,2.9985,2.9963,2.9969,2.9988,2.9989,3.0022,2.9984,3.0012,3.0013,3.001,3.0088,3.0102,3.016,3.0062,3.0063,3.0064,0,2.9899,2.9913,2.9962,2.997,2.9978,3.0,3.0017,3.0035,3.0045,3.0043,3.0055,3.0043,3.0072,3.0043,3.0082,3.0057,3.0067,3.007,3.0072,3.0074,3.0042,3.0093,3.0178,3.0187,3.0076,3.0075,3.0075,0,2.9953,2.9985,3.0018,3.0025,3.0034,3.0051,3.0055,3.0064,3.0076,3.009,3.0098,3.0116,3.0125,3.014,3.0134,3.0113,3.0174,3.0145,3.0174,3.0175,3.0188,3.0187,3.0276,3.0194,3.0194,3.0194,3.0194,0,3.0019,3.005,3.0043,3.0064,3.0098,3.0089,3.0123,3.0125,3.0133,3.0155,3.0139,3.0159,3.015,3.017,3.0165,3.0199,3.0203,3.0203,3.0202,3.0205,3.0205,3.0212,3.0208,3.0196,3.0196,3.0195,3.0195,0,3.0085,3.0082,3.0118,3.0124,3.0126,3.0151,3.0157,3.0176,3.0175,3.0202,3.0208,3.0207,3.0229,3.0225,3.0249,3.0247,3.0289,3.0282,3.0286,3.0284,3.0314,3.0312,3.0411,3.0424,3.0333,3.0334,3.0335,0,3.0128,3.0151,3.016,3.0174,3.018,3.0201,3.0213,3.0205,3.0219,3.0233,3.0251,3.0272,3.0289,3.0326,3.0327,3.0346,3.034,3.0374,3.0343,3.0345,3.0341,3.034,3.0343,3.038,3.0381,3.0382,3.0382,0,3.0204,3.0202,3.022,3.0238,3.0254,3.0267,3.028,3.0291,3.0284,3.0301,3.0324,3.0337,3.0362,3.0384,3.0402,3.0407,3.0394,3.0392,3.04,3.0404,3.0405,3.0405,3.0303,3.039,3.0389,3.0388,3.0388,3.0388,3.0261,3.0281,3.0291,3.0312,3.0321,3.0333,3.0352,3.0353,3.0373,3.0393,3.0387,3.0414,3.0424,3.0447,3.0454,3.0475,3.0462,3.0473,3.0476,3.0479,3.0483,3.0401,3.0478,3.0477,3.0477,3.0477,3.0477,0,3.0337,3.0342,3.0362,3.038,3.0397,3.0383,3.0397,3.0412,3.0435,3.0446,3.0463,3.049,3.0511,3.0514,3.0534,3.055,3.0545,3.0556,3.0555,3.0556,3.0493,3.0485,3.056,3.056,3.056,3.056,3.056,3.056,3.0378,3.0412,3.0411,3.0449,3.0455,3.0481,3.049,3.0501,3.0509,3.054,3.0558,3.056,3.0568,3.0589,3.0608,3.0608,3.0616,3.063,3.0628,3.0569,3.0561,3.0553,3.0545,3.0631,3.0632,3.0689,3.069,3.069]},{"header":{"parameterUnit":"m.s-1","parameterCategory":1,"la1":30.2991,"la2":30.254,"lo1":-89.0895,"lo2":-89.0444,"dy":0.0017,"dx":0.0017,"nx":28,"ny":28,"refTime":"2025-12-30T09:00:00:Z","depth":0,"parameterNumber":3,"parameterNumberName":"V-component_of_WINDS"},"data":[0,0,0,0,0,0,0,0,0,0,0,0,0,0,0,0,0,0,0,0,0,0,0,0,0,0,0,0,0,0,0,0,0,0,0,0,0,0,0,0,0,0,0,0,0,0,0,0,0,0,0,0,0,0,0,0,0,0,-0.879,-0.8791,0,-0.8874,-0.8875,-0.8876,-0.8896,-0.8896,-0.8895,-0.8894,-0.8982,-0.8984,-0.8987,0,0,0,0,0,0,0,0,0,0,0,0,0,-0.865,-0.8653,-0.879,-0.8791,-0.8792,-0.8874,-0.8875,-0.8876,-0.8896,-0.8896,-0.8895,-0.8894,-0.8981,-0.8984,-0.8987,0,0,0,0,0,0,0,0,0,0,0,0,0,-0.872,-0.8654,-0.879,-0.8812,-0.8815,-0.8873,-0.8875,-0.8876,-0.8896,-0.8895,-0.8895,-0.8894,-0.8979,-0.8984,-0.8988,-0.9031,0,0,-0.9001,-0.9003,0,0,0,0,0,0,0,0,-0.8716,-0.8725,-0.8808,-0.8811,-0.8814,-0.8874,-0.8858,-0.8928,-0.8897,-0.8865,-0.8894,-0.8893,-0.8946,-0.8953,-0.8971,-0.9035,-0.9039,-0.9001,-0.9004,-0.9006,-0.9007,0,0,0,0,0,0,0,-0.8711,-0.8722,-0.8823,-0.8809,-0.8813,-0.8819,-0.8828,-0.8871,-0.891,-0.8868,-0.887,-0.8879,-0.8948,-0.8967,-0.8973,-0.904,-0.9001,-0.9005,-0.9007,-0.9009,-0.9146,-0.9147,0,0,0,0,0,0,-0.8702,-0.8718,-0.8821,-0.8826,-0.8762,-0.8822,-0.8832,-0.8855,-0.8909,-0.8917,-0.888,-0.888,-0.896,-0.8968,-0.8976,-0.9032,-0.9006,-0.901,-0.9012,-0.9145,-0.9146,-0.9148,0,0,0,0,0,0,-0.8699,-0.8711,-0.8817,-0.8772,-0.8786,-0.8825,-0.8851,-0.8857,-0.8876,-0.8918,-0.8925,-0.8892,-0.896,-0.897,-0.9018,-0.9035,-0.9011,-0.9015,-0.9144,-0.9145,-0.9147,-0.9143,0,0,0,0,0,0,-0.8695,-0.871,-0.8726,-0.8772,-0.8788,-0.8856,-0.8852,-0.886,-0.8883,-0.8884,-0.8931,-0.8938,-0.896,-0.9011,-0.9022,-0.9041,-0.9019,-0.9142,-0.9144,-0.9146,-0.9141,-0.9144,-0.9146,0,0,0,0,0,-0.869,-0.8721,-0.8727,-0.8739,-0.8809,-0.8857,-0.8866,-0.889,-0.8885,-0.8902,-0.8929,-0.8937,-0.9031,-0.9016,-0.9028,-0.9048,-0.9141,-0.9144,-0.9146,-0.914,-0.9143,-0.9146,0,0,0,0,0,0,-0.8676,-0.8727,-0.8734,-0.8781,-0.8815,-0.886,-0.8882,-0.8892,-0.8928,-0.8927,-0.8956,-0.8966,-0.9012,-0.9035,-0.9017,-0.9094,-0.9086,-0.9091,-0.9078,-0.9081,-0.9083,-0.9077,-0.9022,0,0,0,0,0,-0.8678,-0.8712,-0.8756,-0.8793,-0.8809,-0.8843,-0.8865,-0.888,-0.8916,-0.8931,-0.8961,-0.8996,-0.9035,-0.9059,-0.9096,-0.9144,-0.9156,-0.9165,-0.9167,-0.9169,-0.9173,-0.9203,-0.9208,-0.9156,-0.9156,-0.9155,0,0,-0.8683,-0.8715,-0.8735,-0.8791,-0.8819,-0.8855,-0.8855,-0.8892,-0.8919,-0.8936,-0.8984,-0.9007,-0.9049,-0.9097,-0.912,-0.9118,-0.919,-0.9172,-0.9173,-0.9177,-0.9206,-0.9211,-0.9215,-0.9157,-0.9157,-0.9157,0,0,-0.8711,-0.8738,-0.8773,-0.8801,-0.8843,-0.8866,-0.8874,-0.8919,-0.8936,-0.8983,-0.8998,-0.9031,-0.9095,-0.9125,-0.9148,-0.9189,-0.9199,-0.9201,-0.9213,-0.9242,-0.9246,-0.925,-0.9267,-0.9272,-0.9205,-0.9205,-0.9205,0,-0.8712,-0.8766,-0.879,-0.8827,-0.8852,-0.8869,-0.8906,-0.8932,-0.8985,-0.9002,-0.8998,-0.9081,-0.9109,-0.9167,-0.9177,-0.9194,-0.9207,-0.9196,-0.9243,-0.9248,-0.9252,-0.9268,-0.9274,-0.9205,-0.9205,-0.9205,-0.9205,0,-0.8766,-0.8803,-0.8827,-0.8877,-0.8905,-0.8941,-0.8972,-0.8998,-0.9011,-0.9034,-0.9084,-0.9119,-0.9165,-0.9179,-0.9193,-0.9239,-0.9237,-0.9238,-0.9231,-0.9256,-0.9272,-0.9278,-0.9205,-0.9205,-0.9205,-0.9205,0,0,-0.8787,-0.8851,-0.886,-0.8884,-0.8932,-0.8962,-0.9001,-0.9045,-0.9067,-0.9103,-0.9137,-0.9192,-0.9194,-0.9221,-0.9237,-0.9263,-0.9296,-0.9261,-0.9263,-0.9268,-0.9352,-0.9352,-0.9359,-0.9302,-0.9303,-0.9304,-0.9349,0,-0.8822,-0.8891,-0.8914,-0.8972,-0.9008,-0.9026,-0.9059,-0.9094,-0.9117,-0.9152,-0.9178,-0.9217,-0.9215,-0.9232,-0.9257,-0.9286,-0.9313,-0.9283,-0.9336,-0.9337,-0.9326,-0.9367,-0.9366,-0.9407,-0.9355,-0.9356,-0.9357,0,-0.8872,-0.8909,-0.897,-0.9016,-0.9033,-0.9062,-0.9106,-0.9139,-0.9179,-0.9194,-0.9225,-0.924,-0.9283,-0.9273,-0.9333,-0.9312,-0.9335,-0.9352,-0.9355,-0.9362,-0.935,-0.9376,-0.942,-0.9427,-0.9367,-0.9366,-0.9365,0,-0.8884,-0.8949,-0.8994,-0.9014,-0.9068,-0.909,-0.9113,-0.9152,-0.9179,-0.9217,-0.9235,-0.9278,-0.9302,-0.9335,-0.9363,-0.9352,-0.9421,-0.9413,-0.9437,-0.9436,-0.9451,-0.945,-0.9501,-0.9463,-0.9463,-0.9463,-0.9463,0,-0.8921,-0.8958,-0.9,-0.9029,-0.9071,-0.9099,-0.9141,-0.9166,-0.9201,-0.9235,-0.9253,-0.9285,-0.9319,-0.9356,-0.9377,-0.9425,-0.9435,-0.945,-0.9456,-0.945,-0.9448,-0.9466,-0.9464,-0.9465,-0.9464,-0.9464,-0.9464,0,-0.8941,-0.8971,-0.9022,-0.907,-0.9083,-0.9113,-0.9154,-0.9183,-0.9207,-0.9251,-0.9263,-0.9301,-0.9346,-0.9376,-0.9433,-0.9448,-0.9501,-0.9505,-0.9487,-0.949,-0.9513,-0.9511,-0.9579,-0.959,-0.9543,-0.9543,-0.9544,0,-0.8964,-0.8993,-0.9045,-0.9069,-0.9093,-0.9132,-0.9159,-0.9187,-0.9215,-0.9264,-0.9287,-0.9333,-0.9371,-0.9442,-0.9476,-0.952,-0.9527,-0.9548,-0.9534,-0.9527,-0.953,-0.9528,-0.9533,-0.955,-0.9551,-0.9551,-0.9551,0,-0.9002,-0.9016,-0.9054,-0.9098,-0.9129,-0.9165,-0.9201,-0.922,-0.9255,-0.9286,-0.9332,-0.9362,-0.9421,-0.9467,-0.9515,-0.954,-0.9553,-0.9555,-0.9564,-0.9558,-0.9548,-0.9556,-0.9495,-0.9554,-0.9553,-0.9553,-0.9553,-0.9553,-0.9026,-0.9054,-0.9095,-0.9137,-0.9167,-0.9201,-0.9231,-0.926,-0.9298,-0.9349,-0.9363,-0.9412,-0.9453,-0.9519,-0.9545,-0.9585,-0.9583,-0.9594,-0.9598,-0.9601,-0.9602,-0.954,-0.9593,-0.9593,-0.9593,-0.9593,-0.9593,0,-0.9067,-0.9094,-0.9133,-0.9183,-0.9217,-0.9225,-0.9266,-0.9294,-0.9336,-0.9373,-0.9411,-0.9465,-0.9511,-0.9548,-0.9595,-0.962,-0.9627,-0.9631,-0.9631,-0.9637,-0.9599,-0.9588,-0.9625,-0.9625,-0.9625,-0.9625,-0.9625,-0.9625,-0.9092,-0.914,-0.9159,-0.9223,-0.925,-0.9298,-0.9321,-0.9353,-0.9383,-0.9442,-0.948,-0.9504,-0.9543,-0.9593,-0.9636,-0.9646,-0.9663,-0.9667,-0.9679,-0.9643,-0.9639,-0.9636,-0.9626,-0.967,-0.967,-0.9713,-0.9714,-0.9714]}]]